Location: ?????
(38.3715°N, 23.0573°E)
Time: 20:47:20
(UTC+00:00)

ARGOS Delta rocket - Pass Details

Date: 03 August 2024
Orbit: 631 x 832 km, 96.5° (Epoch: 18 September)

Event Time Altitude Azimuth Distance (km) Brightness Sun altitude
Exits shadow 18:46:08 - 176° (S) 2,802 6.5 -13.0°
Reaches altitude 10° 18:47:25 10° 177° (S) 2,296 6.1 -13.2°
Maximum altitude 18:52:30 69° 261° (W) 851 4.4 -14.0°
Drops below altitude 10° 18:57:52 10° 344° (NNW) 2,416 7.4 -14.8°
Sets 19:00:17 0° 347° (NNW) 3,368 8.2 -15.2°
